Location: Gülübeli Geçidi
(36.8411°N, 29.7411°E)
Time: 11:42:07
(UTC+00:00)

Cosmos 2333 Rocket - Pass Details

Date: 15 May 2026
Orbit: 840 x 862 km, 70.8° (Epoch: 6 June)

Event Time Altitude Azimuth Distance (km) Brightness Sun altitude
Rises 18:12:16 0° 351° (N) 3,420 6.1 -13.0°
Reaches altitude 10° 18:15:23 10° 8° (N) 2,485 5.0 -13.5°
Maximum altitude 18:19:34 21° 55° (NE) 1,846 3.8 -14.2°
Enters shadow 18:22:28 15° 92° (E) 2,177 3.9 -14.6°
